Location: Kerguer�zec
(48.4509°N, 4.7600°W)
Time: 18:03:40
(UTC+00:00)

Mayak - Pass Details

Date: 09 April 2020
Orbit: 581 x 601 km, 97.5° (Epoch: 29 May)

Event Time Altitude Azimuth Distance (km) Brightness Sun altitude
Rises 22:01:49 0° 20° (NNE) 2,822 ? -25.8°
Reaches altitude 10° 22:04:09 10° 30° (NNE) 1,914 ? -26.1°
Enters shadow 22:05:28 18° 40° (NE) 1,453 ? -26.2°
